STARLINK-1098 (44917 NORAD) Tracking and Keplerian Element Data

This shows tracking and keplerian element data for the satellite.

Feedback or suggestion? Click here.




ElementValue
Catalog44917
NameSTARLINK-1098
Epoch Orbit716
Epoch Day53.25001157
Epoch Year2020
RAAN176.1873
Inclination52.9985
Eccentricity0.0001797
Argument of Perigee77.8999
Mean Anonmoly341.9996
Mean Motion15.05581001
Decay Rate0.00078946
L11 44917U 20001D 20053.25001157 .00078946 00000-0 53769-2 0 9995
L22 44917 52.9985 176.1873 0001797 77.8999 341.9996 15.05581001 7162

Live tracking and technical data element details for STARLINK-1098 (NORAD 44917). STARLINK-1098 can be tracked NOW for your location showing map with azimuth and elevation plus other details from your city location.

Track the satellite on the map from your city or location and see movement details for azimuth, elevation, latitude, longitude, range, height, and movement on the map or in text.







IsCatalogInMostPopularTable: catalog: 44917, numindb: 12
Update: records affected: 1



GetName: 44917 STARLINK-1098

Hit Count: updated at: Mon, 24 Feb 2020 19:01:03 GMT